This is the latest recevied weather packets stored in our database for station/object DM1HF-13. If no packets are shown the sender has not sent any weather packets the latest 1 day(s).
| Time | Temp. | Humidity | Pressure | Rain* | Wind** | Luminosity | Snow |
|---|---|---|---|---|---|---|---|
| 1778007316 | 16.67° C | 74% | 1007.6 hPa | 0 mm | 0.45 m/s, 259° | 0 W/m² | - |
| 1778007017 | 17.22° C | 74% | 1007.7 hPa | 0 mm | 0.45 m/s, 332° | 0 W/m² | - |
| 1778006716 | 17.22° C | 74% | 1007.7 hPa | 0 mm | 0.45 m/s, 356° | 0 W/m² | - |
| 1778006416 | 17.22° C | 74% | 1007.9 hPa | 0 mm | 0.89 m/s, 339° | 0 W/m² | - |
| 1778006116 | 17.22° C | 74% | 1007.9 hPa | 0 mm | 0.45 m/s, 295° | 0 W/m² | - |
| 1778005816 | 17.22° C | 73% | 1007.9 hPa | 0 mm | 0.89 m/s, 321° | 0 W/m² | - |
| 1778005516 | 17.22° C | 73% | 1007.8 hPa | 0 mm | 1.34 m/s, 325° | 1 W/m² | - |
| 1778005216 | 17.22° C | 73% | 1007.9 hPa | 0 mm | 0.89 m/s, 304° | 1 W/m² | - |
| 1778004917 | 17.22° C | 73% | 1007.9 hPa | 0 mm | 0.89 m/s, 350° | 2 W/m² | - |
| 1778004616 | 17.22° C | 73% | 1007.9 hPa | 0 mm | 0 m/s | 2 W/m² | - |
| 1778004316 | 17.22° C | 73% | 1007.9 hPa | 0 mm | 0.45 m/s, 317° | 3 W/m² | - |
| 1778004021 | 17.78° C | 72% | 1008 hPa | 0 mm | 0.45 m/s, 1° | 4 W/m² | - |
| 1778003716 | 17.78° C | 72% | 1008 hPa | 0 mm | 0.89 m/s, 286° | 6 W/m² | - |
| 1778003416 | 17.78° C | 71% | 1008 hPa | 0 mm | 0.45 m/s, 336° | 7 W/m² | - |
| 1778003116 | 17.78° C | 71% | 1008.1 hPa | 0 mm | 0.89 m/s, 336° | 8 W/m² | - |
| 1778002816 | 17.78° C | 70% | 1008.1 hPa | 0 mm | 0 m/s | 8 W/m² | - |
| 1778002516 | 17.78° C | 70% | 1008.1 hPa | 0 mm | 0 m/s | 9 W/m² | - |
| 1778002216 | 18.33° C | 69% | 1008.1 hPa | 0 mm | 0.45 m/s, 318° | 10 W/m² | - |
| 1778001916 | 18.33° C | 68% | 1008.1 hPa | 0 mm | 0 m/s | 12 W/m² | - |
| 1778001616 | 18.33° C | 68% | 1008.1 hPa | 0 mm | 0 m/s | 14 W/m² | - |
| 1778001316 | 18.33° C | 67% | 1008.1 hPa | 0 mm | 0.45 m/s, 260° | 16 W/m² | - |
| 1778001016 | 18.33° C | 67% | 1008.1 hPa | 0 mm | 0.45 m/s, 174° | 18 W/m² | - |
| 1778000716 | 18.33° C | 66% | 1008.1 hPa | 0 mm | 0.45 m/s, 312° | 22 W/m² | - |
| 1778000416 | 18.89° C | 66% | 1008.2 hPa | 0 mm | 0.45 m/s, 317° | 26 W/m² | - |
| 1778000116 | 18.89° C | 65% | 1008.3 hPa | 0 mm | 1.34 m/s, 339° | 31 W/m² | - |
* Rain latest hour (hover to see other rain measurements)
** Current wind speed in m/s (hover to see current wind gust speed)